Location: Tel Aviv
(32.0670°N, 34.7670°E)
Time: 00:56:52
(UTC+03:00)

SO-50 - Visible Passes

Search period start: 14 September 2024 00:00
Search period end: 24 September 2024 00:00
Orbit: 612 x 649 km, 64.6° (Epoch: 13 September)

Date Brightness Start Highest point End Pass type
(mag) Time Alt. Az. Time Alt. Az. Time Alt. Az.
19 Sep ? 05:59:09 10° N 06:02:25 19° NE 06:05:42 10° E visible
21 Sep ? 05:02:25 10° NNE 05:03:40 11° NE 05:04:56 10° ENE visible
21 Sep ? 20:46:31 10° SSW 20:47:42 18° SW 20:47:42 18° SW visible
22 Sep ? 05:21:09 10° N 05:24:50 24° NE 05:28:32 10° ESE visible
22 Sep ? 19:28:36 10° SSE 19:31:56 21° ESE 19:33:11 18° E visible
22 Sep ? 21:07:56 10° WSW 21:10:43 26° W 21:10:43 26° W visible
23 Sep ? 05:41:19 10° NNW 05:45:46 57° ENE 05:50:15 10° SE visible
23 Sep ? 19:48:10 10° SSW 19:52:30 54° ESE 19:56:07 14° NE visible
23 Sep ? 21:30:40 10° W 21:32:56 14° NW 21:33:39 13° NW visible
